Hourly Data Report for September 21, 2017

All times are specified in Local Standard Time (LST). Add 1 hour to adjust for Daylight Saving Time where and when it is observed.

CAPE DORSET A
NUNAVUT

64°13'49.000" N
76°31'30.000" W
48.20 m
2400637
71366
YTE

Download Data

Hourly Data (September 2017)
Hourly Data Report for September 21, 2017
Temp Definition
°C
Dew Point Temp Definition
°C
Rel Hum Definition
%
Wind Dir Definition
10's deg

Wind Spd Definition
km/h
Visibility Definition
km
Stn Press Definition
kPa
Hmdx Definition


Wind Chill Definition


Weather Definition


TIME
00:00 Legend Double Dagger 1.6 0.0 89 29 11 16.1 101.57     LegendNANA
01:00 Legend Double Dagger 1.2 -0.1 91 31 9 16.1 101.55     LegendNANA
02:00 Legend Double Dagger 0.9 -0.3 92 30 5 16.1 101.54     LegendNANA
03:00 Legend Double Dagger 0.8 -0.2 93 32 8 16.1 101.49     LegendNANA
04:00 Legend Double Dagger 0.8 -0.1 94 LegendMM 4 16.1 101.44     LegendNANA
05:00 Legend Double Dagger 0.8 0.5 98 15 8 16.1 101.43     LegendNANA
06:00 Legend Double Dagger 0.9 0.5 97 10 5 14.5 101.41     LegendNANA
07:00 Legend Double Dagger 0.6 0.5 99 11 9 16.1 101.35     LegendNANA
08:00 Legend Double Dagger 0.7 0.3 97 7 13 16.1 101.29     LegendNANA
09:00 Legend Double Dagger 0.5 0.1 97 7 15 16.1 101.26     LegendNANA
10:00 Legend Double Dagger 0.5 0.4 99 12 13 16.1 101.20     LegendNANA
11:00 Legend Double Dagger 0.9 0.3 96 10 17 16.1 101.09     LegendNANA
12:00 Legend Double Dagger 0.7 0.4 98 10 18 16.1 101.05     LegendNANA
13:00 Legend Double Dagger 0.5 -0.1 96 10 18 8.1 101.02     Rain,Fog
14:00 Legend Double Dagger 0.5 -0.2 95 11 21 16.1 101.00     LegendNANA
15:00 Legend Double Dagger 0.4 -1.1 89 9 22 16.1 100.91     LegendNANA
16:00 Legend Double Dagger 0.6 -1.4 86 8 30 16.1 100.87     LegendNANA
17:00 Legend Double Dagger 0.9 -1.2 86 8 21 16.1 100.86     LegendNANA
18:00 Legend Double Dagger 1.2 -0.9 86 8 21 16.1 100.83     LegendNANA
19:00 Legend Double Dagger 0.8 0.1 95 8 18 16.1 100.83     Rain
20:00 Legend Double Dagger 0.8 0.2 96 7 18 16.1 100.82     LegendNANA
21:00 Legend Double Dagger 0.8 0.2 95 6 18 16.1 100.82     LegendNANA
22:00 Legend Double Dagger 1.1 -0.5 89 5 18 16.1 100.81     LegendNANA
23:00 Legend Double Dagger 0.9 0.6 98 5 21 16.1 100.81     LegendNANA

Notes on Data Quality.

Legend

  • E = Estimated
  • M = Missing
  • NA = Not Available
  • ‡ = Partner data that is not subject to review by the National Climate Archives
Date modified: